18-07-2022, 00:00:03,    168,    0.0,   18.9,   0.00,   0.00, 1018.4,   29.1, -999.0
18-07-2022, 00:00:12,    168,    0.0,   18.8,   0.00,   0.00, 1018.4,   29.1, -999.0
18-07-2022, 00:00:23,    168,    0.0,   18.9,   0.00,   0.00, 1018.4,   28.9, -999.0
18-07-2022, 00:00:33,    168,    0.0,   18.8,   0.00,   0.00, 1018.4,   29.1, -999.0
18-07-2022, 00:00:42,    168,    0.0,   18.7,   0.00,   0.00, 1018.4,   28.7, -999.0
18-07-2022, 00:00:52,    168,    0.0,   18.8,   0.00,   0.00, 1018.4,   28.7, -999.0
18-07-2022, 00:01:02,    168,    0.0,   18.9,   0.00,   0.00, 1018.4,   28.6, -999.0
18-07-2022, 00:01:12,    168,    0.0,   18.8,   0.00,   0.00, 1018.5,   28.5, -999.0
18-07-2022, 00:01:22,    168,    0.0,   18.8,   0.00,   0.00, 1018.4,   28.7, -999.0
18-07-2022, 00:01:32,    168,    0.0,   18.9,   0.00,   0.00, 1018.4,   28.5, -999.0
18-07-2022, 00:01:42,    168,    0.0,   18.9,   0.00,   0.00, 1018.4,   28.7, -999.0
18-07-2022, 00:01:52,    168,    0.0,   18.9,   0.00,   0.00, 1018.4,   29.0, -999.0
18-07-2022, 00:02:02,    168,    0.0,   18.9,   0.00,   0.00, 1018.4,   28.8, -999.0
18-07-2022, 00:02:12,    167,    0.0,   18.9,   0.00,   0.00, 1018.4,   29.0, -999.0
18-07-2022, 00:02:22,    168,    0.0,   18.9,   0.00,   0.00, 1018.4,   28.8, -999.0
18-07-2022, 00:02:32,    168,    0.0,   18.9,   0.00,   0.00, 1018.4,   28.9, -999.0
18-07-2022, 00:02:42,    168,    0.0,   18.9,   0.00,   0.00, 1018.4,   28.8, -999.0
18-07-2022, 00:02:52,    168,    0.0,   18.9,   0.00,   0.00, 1018.4,   28.8, -999.0
18-07-2022, 00:03:02,    168,    0.0,   18.9,   0.00,   0.00, 1018.4,   28.7, -999.0
18-07-2022, 00:03:11,    168,    0.0,   18.9,   0.00,   0.00, 1018.4,   28.6, -999.0
18-07-2022, 00:03:21,    168,    0.0,   18.9,   0.00,   0.00, 1018.4,   28.6, -999.0
18-07-2022, 00:03:32,    168,    0.0,   18.9,   0.00,   0.00, 1018.4,   28.5, -999.0
18-07-2022, 00:03:41,    168,    0.0,   18.8,   0.00,   0.00, 1018.4,   28.6, -999.0
18-07-2022, 00:03:51,    168,    0.0,   18.9,   0.00,   0.00, 1018.4,   28.7, -999.0
18-07-2022, 00:04:01,    168,    0.0,   18.9,   0.00,   0.00, 1018.4,   28.8, -999.0
18-07-2022, 00:04:11,    169,    0.0,   18.9,   0.00,   0.00, 1018.4,   28.8, -999.0
18-07-2022, 00:04:21,    168,    0.0,   18.8,   0.00,   0.00, 1018.4,   28.6, -999.0
18-07-2022, 00:04:31,    168,    0.0,   18.9,   0.00,   0.00, 1018.4,   28.9, -999.0
18-07-2022, 00:04:41,    168,    0.0,   18.9,   0.00,   0.00, 1018.4,   28.9, -999.0
18-07-2022, 00:04:51,    168,    0.0,   18.9,   0.00,   0.00, 1018.4,   28.9, -999.0
18-07-2022, 00:05:01,    168,    0.0,   18.8,   0.00,   0.00, 1018.4,   28.9, -999.0
18-07-2022, 00:05:11,    168,    0.0,   18.8,   0.00,   0.00, 1018.4,   28.7, -999.0
18-07-2022, 00:05:21,    168,    0.0,   18.8,   0.00,   0.00, 1018.4,   28.6, -999.0
18-07-2022, 00:05:31,    168,    0.0,   18.8,   0.00,   0.00, 1018.4,   28.5, -999.0
18-07-2022, 00:05:41,    168,    0.0,   18.8,   0.00,   0.00, 1018.4,   28.4, -999.0
18-07-2022, 00:05:50,    168,    0.0,   18.9,   0.00,   0.00, 1018.4,   28.4, -999.0
18-07-2022, 00:06:01,    168,    0.0,   18.9,   0.00,   0.00, 1018.4,   28.5, -999.0
18-07-2022, 00:06:11,    168,    0.0,   18.8,   0.00,   0.00, 1018.4,   28.7, -999.0
18-07-2022, 00:06:20,    168,    0.0,   18.8,   0.00,   0.00, 1018.4,   28.8, -999.0
18-07-2022, 00:06:30,    168,    0.0,   18.8,   0.00,   0.00, 1018.4,   28.9, -999.0
18-07-2022, 00:06:40,    168,    0.0,   18.8,   0.00,   0.00, 1018.4,   28.8, -999.0
18-07-2022, 00:06:50,    168,    0.0,   19.0,   0.00,   0.00, 1018.4,   28.8, -999.0
18-07-2022, 00:07:00,    168,    0.0,   18.8,   0.00,   0.00, 1018.4,   28.7, -999.0
18-07-2022, 00:07:10,    168,    0.0,   18.8,   0.00,   0.00, 1018.4,   28.8, -999.0
18-07-2022, 00:07:20,    168,    0.0,   18.8,   0.00,   0.00, 1018.4,   28.9, -999.0
18-07-2022, 00:07:30,    168,    0.0,   18.9,   0.00,   0.00, 1018.4,   28.9, -999.0
18-07-2022, 00:07:40,    168,    0.0,   18.9,   0.00,   0.00, 1018.4,   29.0, -999.0
18-07-2022, 00:07:50,    168,    0.0,   18.9,   0.00,   0.00, 1018.4,   28.8, -999.0
18-07-2022, 00:08:00,    168,    0.0,   18.9,   0.00,   0.00, 1018.4,   28.8, -999.0
18-07-2022, 00:08:10,    168,    0.0,   18.9,   0.00,   0.00, 1018.4,   28.7, -999.0
18-07-2022, 00:08:20,    168,    0.0,   18.9,   0.00,   0.00, 1018.4,   28.6, -999.0
18-07-2022, 00:08:30,    168,    0.0,   18.9,   0.00,   0.00, 1018.4,   28.7, -999.0
18-07-2022, 00:08:40,    168,    0.0,   18.9,   0.00,   0.00, 1018.4,   28.7, -999.0
18-07-2022, 00:08:50,    168,    0.0,   18.9,   0.00,   0.00, 1018.4,   28.9, -999.0
18-07-2022, 00:08:59,    168,    0.0,   18.9,   0.00,   0.00, 1018.4,   29.0, -999.0
18-07-2022, 00:09:10,    168,    0.0,   18.9,   0.00,   0.00, 1018.4,   28.8, -999.0
18-07-2022, 00:09:19,    168,    0.0,   18.9,   0.00,   0.00, 1018.4,   28.9, -999.0
18-07-2022, 00:09:29,    168,    0.0,   18.9,   0.00,   0.00, 1018.4,   28.9, -999.0
18-07-2022, 00:09:39,    168,    0.0,   18.8,   0.00,   0.00, 1018.4,   28.8, -999.0
18-07-2022, 00:09:49,    168,    0.0,   18.8,   0.00,   0.00, 1018.3,   28.6, -999.0
18-07-2022, 00:09:59,    168,    0.0,   18.8,   0.00,   0.00, 1018.4,   28.8, -999.0
18-07-2022, 00:10:09,    168,    0.0,   18.9,   0.00,   0.00, 1018.3,   28.8, -999.0
18-07-2022, 00:10:19,    168,    0.0,   18.9,   0.00,   0.00, 1018.4,   28.9, -999.0
18-07-2022, 00:10:29,    168,    0.0,   18.8,   0.00,   0.00, 1018.3,   28.6, -999.0
18-07-2022, 00:10:39,    168,    0.0,   18.8,   0.00,   0.00, 1018.3,   28.4, -999.0
18-07-2022, 00:10:49,    168,    0.0,   18.9,   0.00,   0.00, 1018.4,   28.0, -999.0
18-07-2022, 00:10:59,    168,    0.0,   18.9,   0.00,   0.00, 1018.3,   28.2, -999.0
18-07-2022, 00:11:09,    168,    0.0,   18.9,   0.00,   0.00, 1018.4,   28.3, -999.0
18-07-2022, 00:11:19,    168,    0.0,   18.9,   0.00,   0.00, 1018.4,   28.4, -999.0
18-07-2022, 00:11:28,    168,    0.0,   18.8,   0.00,   0.00, 1018.4,   28.3, -999.0
18-07-2022, 00:11:39,    168,    0.0,   18.9,   0.00,   0.00, 1018.4,   28.2, -999.0
18-07-2022, 00:11:49,    168,    0.0,   18.9,   0.00,   0.00, 1018.4,   28.3, -999.0
18-07-2022, 00:11:58,    168,    0.0,   18.8,   0.00,   0.00, 1018.4,   28.3, -999.0
18-07-2022, 00:12:08,    168,    0.0,   18.9,   0.00,   0.00, 1018.4,   28.2, -999.0
18-07-2022, 00:12:18,    168,    0.0,   18.8,   0.00,   0.00, 1018.4,   28.3, -999.0
18-07-2022, 00:12:28,    168,    0.0,   18.8,   0.00,   0.00, 1018.4,   28.5, -999.0
18-07-2022, 00:12:38,    168,    0.0,   18.8,   0.00,   0.00, 1018.5,   28.5, -999.0
18-07-2022, 00:12:48,    168,    0.0,   18.8,   0.00,   0.00, 1018.4,   28.4, -999.0
18-07-2022, 00:12:58,    168,    0.0,   18.8,   0.00,   0.00, 1018.4,   28.4, -999.0
18-07-2022, 00:13:08,    168,    0.0,   18.9,   0.00,   0.00, 1018.4,   28.4, -999.0
18-07-2022, 00:13:18,    168,    0.0,   18.8,   0.00,   0.00, 1018.4,   28.5, -999.0
18-07-2022, 00:13:28,    168,    0.0,   18.8,   0.00,   0.00, 1018.4,   28.6, -999.0
18-07-2022, 00:13:38,    168,    0.0,   18.8,   0.00,   0.00, 1018.4,   28.6, -999.0
18-07-2022, 00:13:48,    168,    0.0,   18.7,   0.00,   0.00, 1018.4,   28.5, -999.0
18-07-2022, 00:13:58,    168,    0.0,   18.8,   0.00,   0.00, 1018.4,   28.5, -999.0
18-07-2022, 00:14:08,    168,    0.0,   18.8,   0.00,   0.00, 1018.4,   28.6, -999.0
18-07-2022, 00:14:18,    168,    0.0,   18.8,   0.00,   0.00, 1018.4,   28.7, -999.0
18-07-2022, 00:14:27,    168,    0.0,   18.8,   0.00,   0.00, 1018.4,   28.6, -999.0
18-07-2022, 00:14:37,    168,    0.0,   18.8,   0.00,   0.00, 1018.4,   28.4, -999.0
18-07-2022, 00:14:48,    168,    0.0,   18.8,   0.00,   0.00, 1018.4,   28.4, -999.0
18-07-2022, 00:14:57,    168,    0.0,   18.8,   0.00,   0.00, 1018.4,   28.5, -999.0
18-07-2022, 00:15:07,    168,    0.0,   18.7,   0.00,   0.00, 1018.4,   28.5, -999.0
18-07-2022, 00:15:18,    168,    0.0,   18.7,   0.00,   0.00, 1018.4,   28.5, -999.0
18-07-2022, 00:15:27,    168,    0.0,   18.7,   0.00,   0.00, 1018.4,   28.6, -999.0
18-07-2022, 00:15:37,    168,    0.0,   18.8,   0.00,   0.00, 1018.4,   28.6, -999.0
18-07-2022, 00:15:47,    168,    0.0,   18.8,   0.00,   0.00, 1018.4,   28.7, -999.0
18-07-2022, 00:15:57,    168,    0.0,   18.8,   0.00,   0.00, 1018.4,   28.6, -999.0
18-07-2022, 00:16:07,    168,    0.0,   18.8,   0.00,   0.00, 1018.4,   28.7, -999.0
18-07-2022, 00:16:17,    168,    0.0,   18.8,   0.00,   0.00, 1018.4,   28.7, -999.0
18-07-2022, 00:16:27,    168,    0.0,   18.7,   0.00,   0.00, 1018.4,   28.6, -999.0
18-07-2022, 00:16:37,    168,    0.0,   18.7,   0.00,   0.00, 1018.4,   28.7, -999.0
18-07-2022, 00:16:47,    168,    0.0,   18.8,   0.00,   0.00, 1018.4,   28.6, -999.0
18-07-2022, 00:16:57,    168,    0.0,   18.7,   0.00,   0.00, 1018.4,   28.7, -999.0
18-07-2022, 00:17:06,    168,    0.0,   18.7,   0.00,   0.00, 1018.4,   28.7, -999.0
18-07-2022, 00:17:17,    168,    0.0,   18.8,   0.00,   0.00, 1018.4,   28.5, -999.0
18-07-2022, 00:17:27,    168,    0.0,   18.7,   0.00,   0.00, 1018.4,   28.4, -999.0
18-07-2022, 00:17:36,    168,    0.0,   18.7,   0.00,   0.00, 1018.4,   28.4, -999.0
18-07-2022, 00:17:47,    168,    0.0,   18.7,   0.00,   0.00, 1018.4,   28.4, -999.0
18-07-2022, 00:17:56,    168,    0.0,   18.7,   0.00,   0.00, 1018.4,   28.7, -999.0
18-07-2022, 00:18:06,    168,    0.0,   18.7,   0.00,   0.00, 1018.4,   28.4, -999.0
18-07-2022, 00:18:16,    168,    0.0,   18.7,   0.00,   0.00, 1018.4,   28.5, -999.0
18-07-2022, 00:18:26,    168,    0.0,   18.7,   0.00,   0.00, 1018.4,   28.5, -999.0
18-07-2022, 00:18:36,    168,    0.0,   18.7,   0.00,   0.00, 1018.4,   28.6, -999.0
18-07-2022, 00:18:46,    168,    0.0,   18.7,   0.00,   0.00, 1018.4,   28.7, -999.0
18-07-2022, 00:18:56,    168,    0.0,   18.7,   0.00,   0.00, 1018.4,   28.7, -999.0
18-07-2022, 00:19:06,    168,    0.0,   18.7,   0.00,   0.00, 1018.4,   28.7, -999.0
18-07-2022, 00:19:16,    168,    0.0,   18.7,   0.00,   0.00, 1018.4,   28.8, -999.0
18-07-2022, 00:19:26,    168,    0.0,   18.7,   0.00,   0.00, 1018.4,   28.6, -999.0
18-07-2022, 00:19:36,    168,    0.0,   18.6,   0.00,   0.00, 1018.4,   28.6, -999.0
18-07-2022, 00:19:46,    168,    0.0,   18.7,   0.00,   0.00, 1018.4,   28.6, -999.0
18-07-2022, 00:19:56,    166,    0.0,   18.7,   0.00,   0.00, 1018.4,   28.7, -999.0
18-07-2022, 00:20:05,    168,    0.0,   18.8,   0.00,   0.00, 1018.4,   28.6, -999.0
18-07-2022, 00:20:16,    168,    0.0,   18.7,   0.00,   0.00, 1018.4,   28.7, -999.0
18-07-2022, 00:20:26,    168,    0.0,   18.8,   0.00,   0.00, 1018.4,   28.6, -999.0
18-07-2022, 00:20:35,    168,    0.0,   18.8,   0.00,   0.00, 1018.4,   28.6, -999.0
18-07-2022, 00:20:45,    168,    0.0,   18.8,   0.00,   0.00, 1018.4,   28.7, -999.0
18-07-2022, 00:20:56,    168,    0.0,   18.8,   0.00,   0.00, 1018.4,   28.7, -999.0
18-07-2022, 00:21:05,    168,    0.0,   18.8,   0.00,   0.00, 1018.3,   28.3, -999.0
18-07-2022, 00:21:15,    168,    0.0,   18.7,   0.00,   0.00, 1018.4,   28.4, -999.0
18-07-2022, 00:21:25,    168,    0.0,   18.7,   0.00,   0.00, 1018.3,   28.4, -999.0
18-07-2022, 00:21:35,    168,    0.0,   18.7,   0.00,   0.00, 1018.4,   28.5, -999.0
18-07-2022, 00:21:45,    168,    0.0,   18.7,   0.00,   0.00, 1018.4,   28.6, -999.0
18-07-2022, 00:21:55,    168,    0.0,   18.7,   0.00,   0.00, 1018.3,   28.4, -999.0
18-07-2022, 00:22:05,    168,    0.0,   18.7,   0.00,   0.00, 1018.4,   28.4, -999.0
18-07-2022, 00:22:15,    168,    0.0,   18.7,   0.00,   0.00, 1018.4,   28.5, -999.0
18-07-2022, 00:22:25,    168,    0.0,   18.7,   0.00,   0.00, 1018.4,   28.4, -999.0
18-07-2022, 00:22:35,    168,    0.0,   18.7,   0.00,   0.00, 1018.4,   28.5, -999.0
18-07-2022, 00:22:45,    168,    0.0,   18.6,   0.00,   0.00, 1018.4,   28.5, -999.0
18-07-2022, 00:22:55,    168,    0.0,   18.6,   0.00,   0.00, 1018.4,   28.5, -999.0
18-07-2022, 00:23:05,    168,    0.0,   18.7,   0.00,   0.00, 1018.4,   28.6, -999.0
18-07-2022, 00:23:14,    168,    0.0,   18.6,   0.00,   0.00, 1018.4,   28.6, -999.0
18-07-2022, 00:23:25,    168,    0.0,   18.6,   0.00,   0.00, 1018.4,   28.6, -999.0
18-07-2022, 00:23:34,    168,    0.0,   18.6,   0.00,   0.00, 1018.4,   28.7, -999.0
18-07-2022, 00:23:44,    168,    0.0,   18.5,   0.00,   0.00, 1018.4,   28.7, -999.0
18-07-2022, 00:23:54,    168,    0.0,   18.6,   0.00,   0.00, 1018.3,   28.7, -999.0
18-07-2022, 00:24:04,    168,    0.0,   18.6,   0.00,   0.00, 1018.4,   28.6, -999.0
18-07-2022, 00:24:14,    168,    0.0,   18.7,   0.00,   0.00, 1018.4,   28.7, -999.0
18-07-2022, 00:24:24,    168,    0.0,   18.6,   0.00,   0.00, 1018.4,   28.6, -999.0
18-07-2022, 00:24:34,    168,    0.0,   18.6,   0.00,   0.00, 1018.4,   28.6, -999.0
18-07-2022, 00:24:44,    168,    0.0,   18.7,   0.00,   0.00, 1018.4,   28.6, -999.0
18-07-2022, 00:24:54,    168,    0.0,   18.6,   0.00,   0.00, 1018.4,   28.5, -999.0
18-07-2022, 00:25:04,    168,    0.0,   18.7,   0.00,   0.00, 1018.4,   28.7, -999.0
18-07-2022, 00:25:14,    168,    0.0,   18.7,   0.00,   0.00, 1018.4,   28.5, -999.0
18-07-2022, 00:25:24,    168,    0.0,   18.7,   0.00,   0.00, 1018.4,   28.6, -999.0
18-07-2022, 00:25:34,    168,    0.0,   18.6,   0.00,   0.00, 1018.4,   28.6, -999.0
18-07-2022, 00:25:43,    168,    0.0,   18.6,   0.00,   0.00, 1018.4,   28.6, -999.0
18-07-2022, 00:25:54,    168,    0.0,   18.7,   0.00,   0.00, 1018.4,   28.7, -999.0
18-07-2022, 00:26:04,    168,    0.0,   18.7,   0.00,   0.00, 1018.4,   28.6, -999.0
18-07-2022, 00:26:13,    168,    0.0,   18.7,   0.00,   0.00, 1018.4,   28.7, -999.0
18-07-2022, 00:26:24,    168,    0.0,   18.7,   0.00,   0.00, 1018.4,   28.6, -999.0
18-07-2022, 00:26:33,    168,    0.0,   18.7,   0.00,   0.00, 1018.4,   28.7, -999.0
18-07-2022, 00:26:43,    168,    0.0,   18.7,   0.00,   0.00, 1018.4,   28.7, -999.0
18-07-2022, 00:26:53,    168,    0.0,   18.6,   0.00,   0.00, 1018.4,   28.8, -999.0
18-07-2022, 00:27:03,    168,    0.0,   18.7,   0.00,   0.00, 1018.4,   28.6, -999.0
18-07-2022, 00:27:13,    168,    0.0,   18.7,   0.00,   0.00, 1018.4,   28.6, -999.0
18-07-2022, 00:27:23,    168,    0.0,   18.7,   0.00,   0.00, 1018.4,   28.6, -999.0
18-07-2022, 00:27:33,    168,    0.0,   18.6,   0.00,   0.00, 1018.4,   28.5, -999.0
18-07-2022, 00:27:43,    168,    0.0,   18.6,   0.00,   0.00, 1018.4,   28.8, -999.0
18-07-2022, 00:27:53,    169,    0.0,   18.7,   0.00,   0.00, 1018.4,   28.6, -999.0
18-07-2022, 00:28:03,    168,    0.0,   18.7,   0.00,   0.00, 1018.4,   28.6, -999.0
18-07-2022, 00:28:13,    168,    0.0,   18.6,   0.00,   0.00, 1018.4,   28.5, -999.0
18-07-2022, 00:28:23,    168,    0.0,   18.6,   0.00,   0.00, 1018.4,   28.6, -999.0
18-07-2022, 00:28:33,    168,    0.0,   18.6,   0.00,   0.00, 1018.4,   28.9, -999.0
18-07-2022, 00:28:42,    168,    0.0,   18.7,   0.00,   0.00, 1018.4,   29.1, -999.0
18-07-2022, 00:28:53,    168,    0.0,   18.6,   0.00,   0.00, 1018.4,   29.1, -999.0
18-07-2022, 00:29:03,    167,    0.0,   18.6,   0.00,   0.00, 1018.4,   29.0, -999.0
18-07-2022, 00:29:12,    168,    0.0,   18.6,   0.00,   0.00, 1018.4,   29.2, -999.0
18-07-2022, 00:29:22,    168,    0.0,   18.6,   0.00,   0.00, 1018.4,   29.0, -999.0
18-07-2022, 00:29:33,    168,    0.0,   18.6,   0.00,   0.00, 1018.4,   28.8, -999.0
18-07-2022, 00:29:42,    168,    0.0,   18.6,   0.00,   0.00, 1018.4,   28.8, -999.0
18-07-2022, 00:29:52,    168,    0.0,   18.6,   0.00,   0.00, 1018.4,   28.8, -999.0
18-07-2022, 00:30:02,    168,    0.0,   18.6,   0.00,   0.00, 1018.4,   28.9, -999.0
18-07-2022, 00:30:12,    168,    0.0,   18.6,   0.00,   0.00, 1018.4,   28.9, -999.0
18-07-2022, 00:30:22,    168,    0.0,   18.6,   0.00,   0.00, 1018.4,   28.9, -999.0
18-07-2022, 00:30:32,    168,    0.0,   18.6,   0.00,   0.00, 1018.4,   28.7, -999.0
18-07-2022, 00:30:42,    168,    0.0,   18.6,   0.00,   0.00, 1018.4,   28.9, -999.0
18-07-2022, 00:30:52,    168,    0.0,   18.6,   0.00,   0.00, 1018.4,   28.9, -999.0
18-07-2022, 00:31:02,    168,    0.0,   18.6,   0.00,   0.00, 1018.4,   28.8, -999.0
18-07-2022, 00:31:12,    168,    0.0,   18.6,   0.00,   0.00, 1018.4,   29.0, -999.0
18-07-2022, 00:31:22,    168,    0.0,   18.6,   0.00,   0.00, 1018.4,   28.8, -999.0
18-07-2022, 00:31:32,    168,    0.0,   18.6,   0.00,   0.00, 1018.4,   28.8, -999.0
18-07-2022, 00:31:42,    168,    0.0,   18.6,   0.00,   0.00, 1018.4,   28.8, -999.0
18-07-2022, 00:31:51,    168,    0.0,   18.6,   0.00,   0.00, 1018.3,   28.9, -999.0
18-07-2022, 00:32:02,    168,    0.0,   18.6,   0.00,   0.00, 1018.3,   28.9, -999.0
18-07-2022, 00:32:11,    168,    0.0,   18.7,   0.00,   0.00, 1018.4,   28.9, -999.0
18-07-2022, 00:32:21,    168,    0.0,   18.7,   0.00,   0.00, 1018.3,   28.9, -999.0
18-07-2022, 00:32:31,    168,    0.0,   18.6,   0.00,   0.00, 1018.3,   28.9, -999.0
18-07-2022, 00:32:41,    168,    0.0,   18.6,   0.00,   0.00, 1018.3,   28.9, -999.0
18-07-2022, 00:32:51,    168,    0.0,   18.6,   0.00,   0.00, 1018.3,   29.1, -999.0
18-07-2022, 00:33:01,    168,    0.0,   18.6,   0.00,   0.00, 1018.3,   29.1, -999.0
18-07-2022, 00:33:11,    168,    0.0,   18.6,   0.00,   0.00, 1018.4,   28.9, -999.0
18-07-2022, 00:33:21,    168,    0.0,   18.6,   0.00,   0.00, 1018.4,   28.9, -999.0
18-07-2022, 00:33:31,    168,    0.0,   18.7,   0.00,   0.00, 1018.3,   28.8, -999.0
18-07-2022, 00:33:41,    168,    0.0,   18.5,   0.00,   0.00, 1018.3,   28.8, -999.0
18-07-2022, 00:33:51,    168,    0.0,   18.6,   0.00,   0.00, 1018.3,   28.9, -999.0
18-07-2022, 00:34:01,    168,    0.0,   18.6,   0.00,   0.00, 1018.3,   29.0, -999.0
18-07-2022, 00:34:11,    168,    0.0,   18.6,   0.00,   0.00, 1018.3,   29.0, -999.0
18-07-2022, 00:34:20,    168,    0.0,   18.6,   0.00,   0.00, 1018.3,   28.8, -999.0
18-07-2022, 00:34:31,    168,    0.0,   18.7,   0.00,   0.00, 1018.3,   28.8, -999.0
18-07-2022, 00:34:41,    163,    0.0,   18.7,   0.00,   0.00, 1018.3,   28.6, -999.0
18-07-2022, 00:34:50,    168,    0.0,   18.7,   0.00,   0.00, 1018.3,   28.8, -999.0
18-07-2022, 00:35:00,    168,    0.0,   18.7,   0.00,   0.00, 1018.3,   28.8, -999.0
18-07-2022, 00:35:11,    168,    0.0,   18.6,   0.00,   0.00, 1018.3,   28.8, -999.0
18-07-2022, 00:35:20,    168,    0.0,   18.6,   0.00,   0.00, 1018.3,   28.8, -999.0
18-07-2022, 00:35:30,    168,    0.0,   18.6,   0.00,   0.00, 1018.3,   28.9, -999.0
18-07-2022, 00:35:40,    168,    0.0,   18.6,   0.00,   0.00, 1018.3,   29.0, -999.0
18-07-2022, 00:35:50,    168,    0.0,   18.7,   0.00,   0.00, 1018.3,   28.9, -999.0
18-07-2022, 00:36:00,    168,    0.0,   18.7,   0.00,   0.00, 1018.3,   29.0, -999.0
18-07-2022, 00:36:10,    168,    0.0,   18.7,   0.00,   0.00, 1018.3,   28.7, -999.0
18-07-2022, 00:36:20,    168,    0.0,   18.6,   0.00,   0.00, 1018.3,   28.8, -999.0
18-07-2022, 00:36:30,    168,    0.0,   18.7,   0.00,   0.00, 1018.3,   28.9, -999.0
18-07-2022, 00:36:40,    168,    0.0,   18.7,   0.00,   0.00, 1018.3,   28.9, -999.0
18-07-2022, 00:36:50,    168,    0.0,   18.7,   0.00,   0.00, 1018.2,   29.0, -999.0
18-07-2022, 00:37:00,    168,    0.0,   18.6,   0.00,   0.00, 1018.3,   29.0, -999.0
18-07-2022, 00:37:10,    168,    0.0,   18.7,   0.00,   0.00, 1018.3,   28.9, -999.0
18-07-2022, 00:37:19,    168,    0.0,   18.7,   0.00,   0.00, 1018.3,   28.9, -999.0
18-07-2022, 00:37:30,    168,    0.0,   18.7,   0.00,   0.00, 1018.3,   28.9, -999.0
18-07-2022, 00:37:40,    168,    0.0,   18.6,   0.00,   0.00, 1018.3,   28.9, -999.0
18-07-2022, 00:37:49,    168,    0.0,   18.7,   0.00,   0.00, 1018.3,   29.1, -999.0
18-07-2022, 00:37:59,    168,    0.0,   18.7,   0.00,   0.00, 1018.3,   29.0, -999.0
18-07-2022, 00:38:10,    168,    0.0,   18.7,   0.00,   0.00, 1018.3,   29.0, -999.0
18-07-2022, 00:38:19,    169,    0.0,   18.7,   0.00,   0.00, 1018.3,   29.0, -999.0
18-07-2022, 00:38:29,    164,    0.0,   18.7,   0.00,   0.00, 1018.3,   28.9, -999.0
18-07-2022, 00:38:39,    168,    0.0,   18.7,   0.00,   0.00, 1018.3,   28.9, -999.0
18-07-2022, 00:38:49,    168,    0.0,   18.8,   0.00,   0.00, 1018.3,   29.1, -999.0
18-07-2022, 00:38:59,    168,    0.0,   18.7,   0.00,   0.00, 1018.3,   28.9, -999.0
18-07-2022, 00:39:09,    167,    0.0,   18.7,   0.00,   0.00, 1018.3,   29.0, -999.0
18-07-2022, 00:39:19,    168,    0.0,   18.7,   0.00,   0.00, 1018.3,   29.0, -999.0
18-07-2022, 00:39:29,    168,    0.0,   18.7,   0.00,   0.00, 1018.3,   29.0, -999.0
18-07-2022, 00:39:39,    168,    0.0,   18.7,   0.00,   0.00, 1018.3,   28.8, -999.0
18-07-2022, 00:39:49,    168,    0.0,   18.7,   0.00,   0.00, 1018.3,   28.9, -999.0
18-07-2022, 00:39:59,    168,    0.0,   18.7,   0.00,   0.00, 1018.3,   28.8, -999.0
18-07-2022, 00:40:09,    168,    0.0,   18.6,   0.00,   0.00, 1018.3,   28.8, -999.0
18-07-2022, 00:40:19,    168,    0.0,   18.7,   0.00,   0.00, 1018.3,   29.0, -999.0
18-07-2022, 00:40:28,    168,    0.0,   18.7,   0.00,   0.00, 1018.3,   29.0, -999.0
18-07-2022, 00:40:39,    168,    0.0,   18.6,   0.00,   0.00, 1018.3,   29.0, -999.0
18-07-2022, 00:40:49,    168,    0.0,   18.6,   0.00,   0.00, 1018.4,   29.1, -999.0
18-07-2022, 00:40:58,    168,    0.0,   18.7,   0.00,   0.00, 1018.3,   28.9, -999.0
18-07-2022, 00:41:08,    168,    0.0,   18.7,   0.00,   0.00, 1018.3,   29.1, -999.0
18-07-2022, 00:41:18,    168,    0.0,   18.7,   0.00,   0.00, 1018.4,   29.0, -999.0
18-07-2022, 00:41:28,    168,    0.0,   18.7,   0.00,   0.00, 1018.4,   29.0, -999.0
18-07-2022, 00:41:38,    169,    0.0,   18.5,   0.00,   0.00, 1018.4,   29.1, -999.0
18-07-2022, 00:41:48,    168,    0.0,   18.6,   0.00,   0.00, 1018.4,   29.1, -999.0
18-07-2022, 00:41:58,    168,    0.0,   18.6,   0.00,   0.00, 1018.4,   29.1, -999.0
18-07-2022, 00:42:08,    168,    0.0,   18.6,   0.00,   0.00, 1018.4,   29.0, -999.0
18-07-2022, 00:42:18,    168,    0.0,   18.6,   0.00,   0.00, 1018.4,   29.3, -999.0
18-07-2022, 00:42:28,    168,    0.0,   18.6,   0.00,   0.00, 1018.4,   29.3, -999.0
18-07-2022, 00:42:38,    169,    0.0,   18.7,   0.00,   0.00, 1018.4,   29.1, -999.0
18-07-2022, 00:42:48,    168,    0.0,   18.6,   0.00,   0.00, 1018.4,   29.2, -999.0
18-07-2022, 00:42:57,    168,    0.0,   18.6,   0.00,   0.00, 1018.4,   29.2, -999.0
18-07-2022, 00:43:08,    168,    0.0,   18.6,   0.00,   0.00, 1018.4,   29.1, -999.0
18-07-2022, 00:43:18,    168,    0.0,   18.6,   0.00,   0.00, 1018.4,   29.1, -999.0
18-07-2022, 00:43:27,    168,    0.0,   18.6,   0.00,   0.00, 1018.4,   29.1, -999.0
18-07-2022, 00:43:37,    168,    0.0,   18.6,   0.00,   0.00, 1018.4,   29.3, -999.0
18-07-2022, 00:43:48,    168,    0.0,   18.6,   0.00,   0.00, 1018.4,   29.0, -999.0
18-07-2022, 00:43:57,    168,    0.0,   18.5,   0.00,   0.00, 1018.4,   29.3, -999.0
18-07-2022, 00:44:07,    168,    0.0,   18.6,   0.00,   0.00, 1018.4,   29.1, -999.0
18-07-2022, 00:44:17,    168,    0.0,   18.6,   0.00,   0.00, 1018.4,   29.1, -999.0
18-07-2022, 00:44:27,    168,    0.0,   18.6,   0.00,   0.00, 1018.4,   29.1, -999.0
18-07-2022, 00:44:37,    169,    0.0,   18.6,   0.00,   0.00, 1018.4,   29.0, -999.0
18-07-2022, 00:44:47,    168,    0.0,   18.6,   0.00,   0.00, 1018.4,   29.0, -999.0
18-07-2022, 00:44:57,    168,    0.0,   18.6,   0.00,   0.00, 1018.4,   29.0, -999.0
18-07-2022, 00:45:07,    168,    0.0,   18.6,   0.00,   0.00, 1018.4,   29.1, -999.0
18-07-2022, 00:45:17,    168,    0.0,   18.6,   0.00,   0.00, 1018.4,   29.0, -999.0
18-07-2022, 00:45:27,    168,    0.0,   18.6,   0.00,   0.00, 1018.4,   29.1, -999.0
18-07-2022, 00:45:37,    168,    0.0,   18.4,   0.00,   0.00, 1018.3,   29.1, -999.0
18-07-2022, 00:45:47,    168,    0.0,   18.6,   0.00,   0.00, 1018.4,   29.1, -999.0
18-07-2022, 00:45:57,    168,    0.0,   18.6,   0.00,   0.00, 1018.4,   29.1, -999.0
18-07-2022, 00:46:06,    168,    0.0,   18.6,   0.00,   0.00, 1018.4,   29.0, -999.0
18-07-2022, 00:46:17,    168,    0.0,   18.7,   0.00,   0.00, 1018.4,   29.1, -999.0
18-07-2022, 00:46:26,    168,    0.0,   18.7,   0.00,   0.00, 1018.4,   29.0, -999.0
18-07-2022, 00:46:36,    168,    0.0,   18.6,   0.00,   0.00, 1018.4,   29.0, -999.0